Location: Doughton Park
(36.4224°N, 81.1835°W)
Time: 17:40:12
(UTC-04:00)

ISS - All Passes

Search period start: 21 August 2017 00:00
Search period end: 31 August 2017 00:00
Orbit: 401 x 408 km, 51.6° (Epoch: 22 August)

Date Brightness Start Highest point End Pass type
(mag) Time Alt. Az. Time Alt. Az. Time Alt. Az.
21 Aug - 09:32:02 10° S 09:34:21 18° SE 09:36:40 10° E daylight
21 Aug - 11:07:32 10° WSW 11:10:37 37° NW 11:13:42 10° NE daylight
21 Aug - 16:01:56 10° N 16:03:33 13° NNE 16:05:08 10° NE daylight
21 Aug - 17:37:11 10° NW 17:40:28 82° NE 17:43:43 10° SE daylight
22 Aug - 10:15:02 10° SW 10:18:18 76° NW 10:21:36 10° NE daylight
22 Aug - 11:53:45 10° NW 11:55:15 13° NNW 11:56:46 10° N daylight
22 Aug - 16:45:03 10° NW 16:48:10 39° NE 16:51:15 10° ESE daylight
22 Aug - 18:22:15 10° W 18:24:23 16° SW 18:26:31 10° S daylight
23 Aug - 09:22:53 10° SSW 09:26:04 49° SE 09:29:15 10° ENE daylight
23 Aug - 11:00:20 10° WNW 11:02:44 19° NNW 11:05:08 10° NNE daylight
23 Aug - 15:53:04 10° NNW 15:55:45 23° NNE 15:58:25 10° E daylight
23 Aug - 17:29:17 10° WNW 17:32:16 33° SW 17:35:14 10° SSE daylight
24 Aug - 08:31:15 10° S 08:33:55 23° SE 08:36:35 10° ENE daylight
24 Aug - 10:07:19 10° W 10:10:16 30° NW 10:13:14 10° NNE daylight
24 Aug - 15:01:17 10° N 15:03:15 15° NNE 15:05:12 10° ENE daylight
24 Aug - 16:36:48 10° NW 16:40:03 76° SW 16:43:18 10° SE daylight
25 Aug - 07:40:42 10° SSE 07:41:48 11° SE 07:42:55 10° ESE daylight
25 Aug - 09:14:39 10° WSW 09:17:53 58° NW 09:21:08 10° NE daylight
25 Aug - 10:53:56 10° NW 10:54:56 11° NNW 10:55:58 10° N daylight
25 Aug - 14:10:06 10° N 14:10:38 10° NNE 14:11:11 10° NNE daylight
25 Aug - 15:44:34 10° NW 15:47:45 50° NE 15:50:56 10° ESE daylight
25 Aug - 17:22:20 10° W 17:23:52 13° SW 17:25:26 10° SSW daylight
26 Aug - 08:22:20 10° SW 08:25:36 65° SE 08:28:51 10° NE daylight
26 Aug - 10:00:12 10° WNW 10:02:21 16° NNW 10:04:30 10° NNE daylight
26 Aug - 14:52:29 10° NNW 14:55:20 27° NNE 14:58:11 10° E daylight
26 Aug - 16:28:58 10° WNW 16:31:45 26° SW 16:34:31 10° S daylight
27 Aug - 07:30:27 10° SSW 07:33:22 29° SE 07:36:16 10° ENE daylight
27 Aug - 09:07:01 10° W 09:09:49 25° NNW 09:12:38 10° NNE daylight
27 Aug - 14:00:34 10° NNW 14:02:50 17° NNE 14:05:05 10° ENE daylight
27 Aug - 15:36:20 10° WNW 15:39:32 57° SW 15:42:43 10° SE daylight
28 Aug - 06:39:17 10° SSE 06:41:12 15° SE 06:43:06 10° E daylight
28 Aug - 08:14:12 10° WSW 08:17:22 45° NW 08:20:33 10° NE daylight
28 Aug - 13:08:59 10° N 13:10:13 12° NNE 13:11:28 10° NE daylight
28 Aug - 14:43:58 10° NW 14:47:13 65° NE 14:50:27 10° ESE daylight
29 Aug - 07:21:43 10° SW 07:25:00 86° SE 07:28:18 10° NE daylight
29 Aug - 09:00:01 10° WNW 09:01:52 14° NNW 09:03:43 10° N daylight
29 Aug - 13:51:47 10° NNW 13:54:48 33° NE 13:57:48 10° ESE daylight
29 Aug - 15:28:36 10° W 15:31:07 20° SW 15:33:36 10° S daylight
30 Aug - 06:29:38 10° SSW 06:32:42 38° SE 06:35:48 10° ENE visible
30 Aug - 08:06:39 10° W 08:09:16 21° NNW 08:11:53 10° NNE daylight
30 Aug - 12:59:47 10° NNW 13:02:17 20° NNE 13:04:47 10° E daylight
30 Aug - 14:35:46 10° WNW 14:38:54 43° SW 14:41:59 10° SSE daylight
